Volver al catálogo

DELTA 1 DEB

ActivoUNKNOWN
NORAD 20349·DEBRIS·🇺🇸 United States

Lanzado Jul 29, 1976 desde Vandenberg Space Force Base

Loading…

Próximos Pases (próximas 24 horas)

TLE

ActualizadoSource: Space-Track

Época: Sep 14, 2026, 11:41 UTC

1 20349U 76077FR  26257.48699269 -.00000459  00000-0 -74505-2 0  9993
2 20349 102.5799 351.7187 0625003  49.8871 324.9709 11.33784473565908

Sigue DELTA 1 DEB en tiempo real con AllMySat

Download on the App Store